Temperature
19 20 20 20 22 23 24 24 24 24 25 24 23 23 25 26 26 24 22 22 22 21 19 17 16 15 15 15 15 14 14 14 13 12 12 12 12 12 11 12 12 11 11 12 12 11 11 12 12
19 20 20 20 23 23 24 24 24 24 23 23 23 23 24 26 24 23 22 22 21 21 19 16 15 15 15 15 15 14 14 13 13 12 12 12 12 12 11 11 11 12 12 12 12 12 11 11 11
19 20 20 21 21 22 23 23 23 22 23 22 24 24 25 25 23 22 22 22 21 21 19 17 16 15 15 15 14 14 13 13 13 13 12 12 12 12 12 12 11 12 12 12 12 13 11 11 11
18 19 20 22 22 21 22 22 22 22 23 22 23 24 24 23 22 23 22 22 21 20 19 18 17 15 15 15 14 14 13 13 13 13 13 13 13 13 12 12 11 12 12 11 12 12 12 11 11
18 20 22 21 21 22 23 22 21 22 23 23 22 24 25 22 23 22 22 22 21 20 18 18 16 15 15 15 14 14 13 12 12 13 12 13 13 13 13 12 11 11 11 12 12 11 11 11 11
19 20 21 21 21 21 22 21 21 22 22 22 23 23 24 21 22 22 22 22 21 20 19 17 16 15 15 14 13 13 13 13 12 12 12 12 13 13 13 13 12 11 11 11 11 10 11 11 11
19 20 20 20 20 21 22 21 22 22 23 22 21 23 24 21 22 21 22 22 21 20 19 18 16 15 15 14 14 13 14 13 12 12 13 13 13 13 13 12 11 11 11 11 12 11 11 11 11
17 19 19 19 20 21 21 20 20 21 22 21 21 23 24 21 21 21 21 21 22 21 20 18 17 15 14 14 14 14 13 13 14 14 14 14 14 14 13 13 12 13 12 13 13 13 13 12 12
16 19 19 20 20 21 21 20 20 20 20 21 21 22 21 21 21 21 21 20 21 21 21 20 18 16 14 14 14 15 14 14 15 15 15 15 14 14 14 14 14 14 14 14 14 14 14 14 13
17 18 19 20 21 21 20 20 20 20 21 22 22 21 20 20 20 21 20 19 20 21 21 20 19 17 16 15 15 14 14 15 14 15 14 15 14 14 15 15 14 14 14 14 14 14 14 14 13
17 18 20 19 19 19 19 20 19 20 21 22 22 22 21 20 20 21 21 20 20 20 21 21 20 18 17 16 16 15 15 15 15 15 15 15 15 15 15 14 14 14 14 14 14 14 13 13 13
17 18 19 19 18 18 19 19 19 20 20 20 20 20 19 20 20 21 21 22 21 21 20 20 20 19 18 17 17 16 16 16 16 16 16 15 15 15 14 14 14 14 13 13 13 13 13 13 12
17 19 18 18 18 18 18 18 19 19 20 20 20 19 19 19 20 21 22 22 22 21 20 20 20 19 19 18 17 17 16 16 16 15 15 15 14 14 13 13 13 13 13 13 13 13 13 13 13
17 18 18 19 19 18 18 19 19 20 21 20 20 19 19 19 20 20 21 21 21 21 21 21 20 20 19 18 18 17 16 15 15 15 14 14 14 14 14 14 14 13 13 13 13 13 13 13 13
17 18 18 19 19 19 19 19 20 20 19 19 19 18 17 18 18 19 20 20 20 20 20 21 21 21 19 18 17 17 16 16 15 15 15 14 14 14 14 14 14 13 13 13 12 12 12 12 12
16 17 17 19 19 18 18 19 22 19 19 20 19 17 16 16 16 18 19 19 19 20 20 20 21 20 19 17 17 16 16 16 15 15 15 14 14 14 14 13 12 13 13 12 12 12 11 11 11
16 16 17 19 19 19 18 19 21 20 19 20 20 17 16 15 16 17 18 18 18 19 19 20 20 19 18 17 16 16 16 15 15 14 14 14 14 14 13 13 13 12 12 12 12 12 11 11 10
16 17 18 18 19 18 18 19 21 20 19 20 19 17 16 15 15 16 17 17 17 18 18 19 19 18 17 16 15 15 14 14 14 14 13 13 13 13 13 13 12 12 12 11 11 10 10 10 10
18 18 18 19 18 18 19 19 20 21 20 19 18 17 15 14 15 15 16 16 17 18 18 18 18 17 16 15 14 14 13 13 13 13 13 12 12 12 12 12 12 12 11 11 10 9 9 9 9
18 17 18 19 18 17 19 19 20 21 20 19 18 17 15 13 13 14 15 16 17 17 18 18 17 16 16 15 14 14 13 13 12 12 12 12 12 12 12 11 11 11 10 10 9 8 8 8 8
17 17 18 18 17 17 17 19 21 19 17 16 17 16 15 14 13 13 15 16 16 17 17 17 16 16 15 14 14 13 13 12 12 12 12 11 11 11 11 11 10 10 10 9 8 7 6 6 7
16 18 18 16 15 17 18 19 20 21 18 16 16 15 14 13 12 12 14 14 15 15 15 15 15 14 14 13 13 13 12 12 12 11 11 11 11 11 10 10 9 9 8 8 7 7 6 5 5
17 17 17 16 15 16 18 18 21 18 18 17 16 15 13 13 12 11 13 14 14 14 14 14 14 13 13 13 13 12 12 11 11 11 11 10 10 10 9 9 8 8 7 7 6 6 5 4 4
15 16 15 15 15 16 18 18 21 22 20 18 16 15 13 12 11 11 14 14 14 14 14 13 13 13 12 12 12 12 11 11 11 10 10 10 9 9 8 8 8 7 6 6 6 5 5 4 4
16 15 12 14 14 17 17 17 20 21 19 19 17 15 14 12 11 11 12 13 13 13 13 12 12 13 12 12 12 11 11 11 10 10 10 9 9 8 8 7 7 6 6 5 5 5 4 3 3
15 16 16 16 17 18 15 17 19 19 18 18 17 16 14 13 12 11 12 12 12 12 12 12 12 12 12 12 11 11 10 10 9 9 9 8 7 7 6 6 5 5 5 4 4 3 2 2 1
11 15 17 17 16 18 18 19 20 19 18 16 17 16 14 13 11 11 11 11 11 11 11 11 11 11 11 11 10 10 9 9 8 8 8 7 6 6 5 5 5 4 4 3 3 2 2 1 0
14 15 12 14 16 17 18 19 21 21 20 17 16 15 14 12 11 10 10 10 11 11 11 10 10 10 10 10 9 9 8 8 7 7 7 6 5 5 4 4 4 3 3 2 2 1 0 -0 -1
16 15 15 17 16 17 19 20 21 20 19 18 17 16 14 12 11 10 10 10 10 10 10 10 9 9 9 9 8 8 7 7 6 6 5 5 4 4 3 3 3 2 2 1 1 0 -0 -1 -1
16 17 17 16 15 16 18 19 19 19 17 16 16 15 14 12 11 10 9 10 10 10 9 9 9 8 8 8 7 7 6 6 5 5 5 4 3 3 2 2 2 1 1 1 0 -1 -2 -2 -2
Wind_Speed
12 7 3 2 3 5 7 3 1 0 2 6 8 7 7 6 4 3 3 4 4 7 12 13 12 11 10 10 11 8 6 4 4 4 4 3 3 0 0 1 4 4 5 6 8 9 10 9 8
10 4 1 2 4 6 5 2 2 4 9 11 7 4 5 3 1 2 2 5 5 8 11 12 12 11 12 11 10 7 5 4 4 5 5 4 5 3 3 1 3 4 5 5 6 8 9 10 10
6 4 2 1 2 4 2 2 7 11 11 6 3 2 2 2 3 3 3 6 6 8 10 9 11 12 13 12 10 7 6 5 5 6 7 6 6 5 5 2 3 2 3 4 5 5 7 9 10
4 2 1 3 3 3 5 7 10 12 6 4 6 4 1 3 3 3 3 7 6 8 9 10 10 11 11 11 10 8 6 4 6 6 7 8 8 5 5 5 4 2 2 4 5 6 7 8 9
1 3 5 5 4 4 6 8 8 9 9 7 6 5 2 3 2 1 4 6 6 7 7 9 9 10 11 10 9 8 6 6 5 5 7 9 9 7 5 6 4 1 3 5 6 7 7 8 8
2 3 8 9 7 6 8 5 6 8 8 7 7 8 2 4 2 1 4 5 5 7 7 8 9 9 11 11 11 11 10 7 5 5 7 9 10 6 6 2 3 2 4 6 8 9 10 9 8
4 6 11 11 10 9 4 3 5 9 9 5 8 5 1 7 6 0 3 5 6 6 7 7 8 9 10 10 9 9 10 7 6 4 5 5 6 8 7 1 1 4 5 5 9 11 11 11 11
3 6 11 11 10 7 2 4 6 8 9 7 5 4 2 8 5 1 3 4 5 6 7 7 6 8 9 10 9 8 8 7 5 4 3 3 3 3 4 5 4 6 9 8 10 11 13 13 13
3 9 14 13 9 5 2 5 7 7 10 10 7 7 6 6 3 2 4 5 6 8 9 8 7 7 8 7 7 10 9 8 7 6 5 5 6 6 6 6 7 8 10 11 12 12 14 14 14
9 14 17 12 10 7 5 9 10 9 13 13 10 9 7 8 7 6 6 7 9 10 11 10 9 8 8 8 7 8 8 8 7 6 4 4 5 5 7 9 8 10 11 12 13 14 14 14 13
13 18 14 10 9 8 8 11 9 12 15 12 13 14 12 13 10 8 7 8 9 9 9 10 10 9 9 8 7 7 7 7 6 6 5 4 4 5 6 7 8 9 8 9 10 11 11 11 12
14 17 15 12 8 8 10 11 14 16 21 19 19 17 13 11 10 10 9 6 8 8 8 8 10 10 10 9 7 7 6 6 6 6 6 5 4 4 5 6 7 8 8 8 9 9 11 13 14
21 17 15 14 11 10 12 14 17 20 22 20 19 15 12 11 11 9 6 4 4 6 6 8 9 11 10 9 8 6 6 6 5 5 5 4 4 5 6 6 7 8 8 8 9 10 11 12 13
18 19 16 15 14 12 14 17 11 21 18 16 13 13 9 8 7 6 4 2 2 3 4 5 9 11 11 10 8 6 5 5 4 4 4 4 5 5 6 7 7 7 8 9 9 10 11 11 12
19 15 17 17 15 11 10 17 16 15 10 8 7 5 2 3 3 3 4 3 3 3 4 5 5 9 10 9 7 5 3 3 2 2 3 4 5 5 6 6 7 7 9 10 10 11 11 11 12
19 17 18 18 14 9 8 15 9 2 2 4 3 1 3 4 4 5 4 4 3 4 6 6 2 4 7 7 5 3 1 0 2 2 3 3 4 5 5 5 6 8 8 8 9 9 10 11 12
17 18 21 17 13 11 11 13 7 6 11 12 5 3 4 5 7 7 6 5 5 6 7 8 6 6 6 6 5 5 5 5 5 6 6 7 7 6 5 5 7 7 7 7 8 9 10 11 12
18 19 15 16 10 10 14 15 13 11 9 7 4 5 7 7 8 7 7 7 7 7 9 10 10 10 10 9 8 8 9 9 10 10 11 12 12 11 8 7 9 9 8 9 10 12 12 12 12
20 20 16 14 8 7 13 16 15 15 10 8 7 8 9 9 8 7 8 8 10 12 13 13 13 11 9 8 9 10 10 10 10 10 13 13 12 12 10 8 9 10 9 10 11 11 13 12 13
20 19 17 13 6 5 13 17 17 14 9 9 11 12 12 11 10 9 10 11 12 13 14 15 15 14 12 10 9 9 9 9 9 9 11 13 13 12 10 10 8 9 9 10 11 12 11 11 13
20 18 16 9 5 6 9 15 11 5 4 5 10 12 13 14 12 11 11 12 12 13 13 14 16 14 12 12 10 9 9 8 8 8 8 10 11 11 10 9 9 9 9 9 11 11 11 11 12
20 15 10 7 1 3 2 5 7 8 6 9 13 14 14 14 13 12 12 12 12 12 12 15 15 14 12 10 9 10 8 8 8 7 7 7 10 11 11 10 9 9 8 9 10 11 10 11 11
15 12 8 3 3 6 7 6 5 4 8 12 15 15 14 13 14 13 12 12 11 10 11 12 14 13 12 11 10 10 9 8 6 6 6 7 7 8 10 9 8 9 8 9 10 10 10 9 11
15 13 7 3 2 7 8 8 6 4 4 13 17 17 15 14 14 13 12 11 10 10 10 11 12 12 11 11 11 11 10 8 7 7 7 6 6 6 9 10 9 9 9 9 10 10 10 10 11
17 14 5 6 6 4 3 7 7 3 4 12 20 20 18 16 15 14 13 11 10 10 9 9 11 11 10 11 10 10 9 8 7 7 7 7 7 7 9 9 9 8 9 10 10 10 10 10 11
14 14 6 4 4 4 3 5 2 0 2 9 17 21 20 18 16 15 14 12 10 9 9 9 9 10 9 9 9 8 8 6 6 7 6 6 6 6 7 8 8 9 10 10 10 9 10 10 11
8 8 3 2 2 2 4 4 2 3 4 8 15 21 20 18 16 15 14 12 11 10 8 8 8 8 8 8 7 7 7 6 5 5 5 5 5 5 7 9 10 10 10 11 11 10 11 11 12
10 11 5 4 3 4 3 4 2 3 2 8 17 22 21 18 16 15 13 12 10 9 8 7 7 8 7 7 6 6 6 5 5 5 5 5 5 7 8 9 10 10 11 11 11 10 11 12 13
14 12 7 6 2 3 3 3 2 3 3 4 13 20 21 19 17 15 13 12 11 10 9 8 7 7 6 6 5 5 4 4 4 4 5 5 6 7 8 10 10 11 12 12 12 13 13 14 15
12 12 14 8 4 3 2 1 3 2 3 2 10 17 18 18 16 15 14 13 11 10 9 8 7 6 5 5 4 4 3 3 3 4 5 6 7 8 9 10 11 12 12 13 14 14 15 16 17
Wind_Direction
326 330 338 280 243 237 229 198 232 164 329 323 304 284 302 303 325 16 80 129 112 140 156 164 166 164 162 145 141 145 160 177 207 234 231 234 239 193 298 74 59 32 12 20 8 350 356 356 5
328 322 344 309 259 237 211 201 229 310 318 311 288 246 257 281 1 54 102 140 134 144 157 165 159 158 155 151 150 159 184 202 229 253 284 271 238 198 184 196 64 40 23 13 6 334 338 342 346
318 317 317 292 250 262 291 1 334 321 313 305 286 243 277 346 49 40 79 141 144 147 158 150 144 154 158 165 164 168 192 211 240 263 290 306 267 234 179 172 124 74 20 341 348 336 319 322 332
328 282 217 254 264 258 279 315 332 325 330 314 309 285 212 30 34 46 113 150 151 152 161 148 156 162 164 163 162 173 191 221 249 267 281 291 292 251 176 151 138 116 353 329 327 329 320 312 312
314 266 253 245 263 275 287 301 314 316 325 317 313 308 329 55 20 70 146 160 160 157 162 160 170 172 169 167 166 178 201 217 242 265 274 296 294 266 232 172 167 147 309 314 313 305 301 302 302
245 251 252 253 258 283 295 297 301 311 320 322 325 308 25 48 9 109 160 162 161 159 166 172 180 195 185 187 188 185 204 215 228 253 279 318 341 306 275 212 173 230 274 303 311 298 292 287 289
247 244 259 261 264 280 286 284 302 318 308 328 331 291 119 52 22 124 165 155 157 162 172 181 190 200 206 207 202 199 208 207 223 244 274 315 12 28 16 73 255 273 281 294 307 311 308 306 300
252 243 247 248 254 267 285 286 308 304 306 317 303 290 351 13 12 213 182 171 164 172 185 191 201 209 214 211 209 218 217 202 211 235 272 325 317 327 331 309 304 309 302 298 295 299 301 304 304
211 232 238 238 242 248 231 298 308 296 284 286 276 272 332 342 345 249 220 201 192 193 196 201 210 219 227 230 202 215 216 204 208 222 218 250 264 274 286 296 296 286 285 286 285 284 285 294 292
212 230 236 239 246 256 266 294 304 294 284 281 268 260 288 314 311 294 266 234 212 206 200 204 213 220 228 233 228 225 213 213 217 225 241 264 277 290 300 294 279 274 272 274 272 276 281 282 282
216 232 235 233 237 261 277 285 290 287 283 280 288 295 303 306 301 290 285 248 226 218 208 206 211 218 224 230 230 225 216 214 218 225 236 253 272 280 281 287 283 284 276 284 283 282 281 285 286
219 230 234 236 240 252 270 285 285 278 275 282 286 293 291 287 293 295 295 257 223 221 227 219 215 217 222 225 225 225 219 213 220 222 228 239 260 278 292 299 303 305 305 303 301 296 292 288 283
219 218 222 237 248 258 270 273 284 279 276 282 281 274 269 285 292 298 297 265 239 235 238 232 224 219 217 219 221 222 226 222 229 238 247 257 276 296 305 304 310 310 307 304 302 299 295 292 288
213 221 227 239 247 255 267 276 279 274 289 293 279 264 275 297 308 299 310 306 281 278 270 258 237 225 214 212 215 217 228 238 243 259 272 282 293 302 310 305 302 306 307 307 305 305 302 296 293
216 215 223 234 242 251 269 271 258 278 302 290 291 273 302 350 350 353 344 338 355 357 349 323 269 230 214 207 208 215 225 251 268 294 302 296 294 297 298 301 312 320 324 321 317 313 308 302 299
208 216 224 225 226 240 235 261 258 249 278 299 327 70 80 60 42 31 7 348 6 12 18 16 9 196 195 191 184 176 151 55 45 20 347 342 340 331 321 324 333 337 334 332 327 326 319 314 311
203 210 218 227 223 227 222 252 238 254 284 280 263 149 120 90 62 44 28 24 29 30 35 46 65 105 134 142 134 108 90 77 66 56 45 43 40 30 21 16 7 358 354 350 343 331 324 315 311
188 202 210 217 210 211 223 242 265 283 274 262 179 155 128 100 73 57 52 57 60 62 67 72 76 90 107 113 110 96 86 76 68 64 61 59 54 47 42 32 18 6 1 355 346 335 328 321 320
198 202 201 205 190 218 249 260 267 281 263 228 186 162 135 109 91 78 72 77 79 75 72 70 71 79 94 100 101 97 92 84 75 65 58 52 46 39 31 20 12 3 356 351 343 337 331 329 330
200 203 207 207 188 239 269 273 273 273 251 223 186 166 148 128 111 92 85 82 80 77 75 75 71 69 74 81 84 92 91 82 75 66 54 46 41 34 27 16 6 358 349 348 346 344 337 332 334
192 196 190 186 172 235 275 273 246 202 188 188 178 163 150 139 127 113 98 88 83 76 74 76 77 76 79 89 97 100 92 80 66 53 47 40 37 32 23 14 4 0 356 352 348 347 340 334 333
193 194 176 158 200 230 276 276 230 213 199 183 171 162 153 141 130 120 110 98 88 83 80 79 79 77 73 76 83 82 77 70 55 46 40 36 32 27 18 12 7 3 0 357 351 350 343 339 336
188 172 189 179 265 277 239 255 245 191 214 190 175 166 159 150 137 130 119 108 101 93 87 85 83 77 74 73 74 78 77 72 56 40 33 27 25 23 17 10 9 8 5 359 351 347 344 344 339
146 130 114 102 270 248 224 231 259 197 219 182 175 172 166 158 148 138 129 122 113 104 96 92 89 82 77 76 74 75 74 66 53 36 25 17 16 17 17 9 11 8 2 353 346 343 340 340 336
160 149 136 184 206 220 158 224 252 243 209 179 177 178 174 168 163 154 146 140 129 117 107 101 99 95 89 84 79 76 73 64 49 32 21 13 11 11 8 3 2 358 353 348 342 336 332 332 329
179 179 182 179 187 168 176 235 236 316 212 186 184 179 176 174 171 163 153 148 142 130 120 116 110 105 99 93 86 77 67 58 47 34 21 16 8 358 353 352 352 351 349 345 338 327 326 326 322
167 195 178 91 63 247 199 234 234 190 185 186 185 179 180 178 173 165 159 157 149 138 128 125 123 115 106 99 91 79 68 58 48 34 26 14 1 347 345 349 349 346 341 335 329 324 324 321 317
195 166 171 180 200 226 204 229 197 126 150 180 185 184 179 175 172 167 165 159 149 138 132 131 125 118 112 102 93 85 71 55 41 29 24 9 353 347 342 341 338 333 328 326 324 318 318 314 310
177 175 195 189 215 233 199 145 112 354 334 214 191 186 176 174 174 171 168 159 151 146 145 141 136 132 122 108 98 87 71 50 36 24 12 355 346 341 333 331 326 321 321 323 321 319 315 311 307
198 186 185 191 186 226 297 117 118 345 339 223 183 179 176 174 173 171 167 161 159 158 156 152 148 142 126 111 93 72 55 37 23 10 3 347 341 334 326 318 314 316 321 324 321 317 314 310 308
Height
1540 1538 1536 1535 1534 1530 1525 1523 1521 1519 1518 1519 1519 1517 1514 1513 1511 1516 1513 1509 1508 1507 1507 1507 1508 1510 1511 1512 1513 1513 1513 1513 1512 1511 1511 1511 1512 1511 1511 1511 1511 1510 1509 1507 1506 1507 1507 1507 1506
1540 1539 1538 1537 1531 1530 1522 1522 1520 1521 1520 1519 1516 1515 1514 1511 1512 1512 1510 1509 1508 1507 1506 1507 1507 1509 1511 1512 1513 1513 1512 1512 1511 1511 1511 1511 1512 1512 1511 1511 1510 1509 1508 1507 1506 1506 1506 1506 1505
1539 1539 1539 1536 1535 1531 1526 1524 1524 1524 1520 1518 1515 1513 1513 1512 1512 1512 1510 1509 1508 1508 1507 1507 1507 1508 1509 1511 1512 1511 1511 1511 1510 1510 1511 1511 1511 1512 1511 1511 1509 1509 1508 1506 1505 1505 1504 1504 1504
1539 1540 1538 1534 1532 1532 1529 1526 1527 1525 1520 1519 1517 1512 1512 1512 1512 1511 1510 1509 1509 1508 1508 1507 1507 1508 1509 1510 1510 1511 1511 1511 1510 1509 1510 1511 1511 1511 1511 1510 1509 1508 1507 1506 1505 1504 1503 1503 1503
1540 1540 1535 1533 1531 1530 1527 1527 1527 1525 1521 1519 1518 1512 1512 1512 1510 1510 1510 1509 1509 1510 1509 1509 1508 1509 1509 1509 1510 1510 1511 1510 1509 1509 1510 1511 1511 1511 1511 1509 1509 1508 1507 1505 1504 1503 1503 1502 1501
1539 1538 1533 1531 1529 1528 1526 1527 1526 1523 1521 1519 1517 1514 1513 1512 1510 1509 1509 1509 1509 1510 1509 1509 1509 1510 1510 1509 1509 1510 1510 1510 1509 1509 1509 1509 1509 1509 1510 1509 1509 1507 1505 1505 1503 1503 1502 1501 1500
1538 1535 1531 1530 1529 1526 1525 1526 1524 1523 1520 1518 1518 1514 1512 1513 1510 1509 1509 1509 1509 1509 1509 1508 1509 1510 1510 1510 1509 1509 1510 1509 1508 1508 1507 1507 1508 1508 1508 1508 1507 1506 1505 1503 1502 1501 1500 1500 1499
1536 1534 1531 1530 1527 1525 1525 1525 1525 1523 1520 1519 1518 1514 1512 1513 1510 1508 1507 1508 1508 1508 1509 1508 1509 1510 1511 1510 1508 1508 1508 1508 1507 1507 1506 1506 1507 1507 1507 1507 1506 1505 1504 1502 1500 1499 1498 1497 1496
1534 1534 1529 1526 1527 1522 1524 1525 1524 1523 1521 1517 1516 1514 1513 1511 1510 1508 1506 1506 1506 1507 1508 1507 1508 1509 1510 1510 1508 1506 1506 1506 1506 1505 1506 1505 1506 1506 1505 1505 1504 1503 1502 1500 1499 1498 1496 1495 1492
1531 1527 1522 1522 1522 1522 1522 1524 1524 1522 1517 1514 1513 1512 1512 1510 1509 1506 1505 1505 1504 1505 1506 1506 1506 1507 1509 1508 1507 1506 1506 1505 1506 1505 1506 1505 1505 1505 1504 1503 1502 1501 1500 1498 1497 1495 1494 1491 1490
1525 1521 1519 1522 1522 1523 1522 1522 1521 1519 1514 1512 1511 1510 1510 1507 1506 1504 1504 1503 1503 1503 1503 1503 1504 1505 1506 1507 1506 1506 1505 1504 1505 1505 1505 1504 1504 1504 1503 1502 1500 1499 1497 1496 1494 1492 1490 1488 1487
1520 1518 1518 1519 1521 1522 1521 1519 1518 1515 1512 1510 1508 1507 1505 1504 1503 1503 1502 1500 1499 1500 1500 1500 1501 1502 1503 1504 1504 1504 1503 1503 1504 1504 1504 1503 1502 1502 1501 1500 1499 1497 1496 1494 1492 1489 1487 1485 1483
1515 1514 1516 1518 1519 1519 1518 1517 1514 1510 1506 1505 1503 1502 1502 1500 1499 1499 1498 1497 1497 1497 1497 1497 1498 1499 1500 1501 1502 1502 1502 1502 1503 1503 1503 1502 1501 1501 1500 1499 1496 1495 1494 1491 1489 1487 1485 1482 1480
1510 1512 1512 1513 1515 1516 1514 1511 1511 1501 1501 1500 1499 1498 1498 1496 1495 1494 1494 1494 1494 1494 1494 1495 1495 1496 1497 1498 1499 1500 1500 1501 1501 1501 1501 1500 1499 1498 1497 1496 1494 1493 1491 1488 1486 1483 1481 1478 1475
1508 1509 1509 1509 1511 1511 1512 1506 1501 1499 1499 1497 1496 1495 1493 1491 1490 1490 1490 1491 1492 1492 1492 1492 1492 1492 1493 1495 1497 1497 1498 1498 1499 1498 1498 1497 1497 1496 1495 1493 1492 1490 1487 1484 1482 1479 1476 1474 1470
1505 1506 1504 1501 1505 1508 1512 1501 1494 1497 1497 1495 1494 1492 1490 1488 1487 1487 1488 1489 1490 1490 1490 1490 1489 1489 1490 1492 1494 1495 1496 1496 1496 1497 1497 1496 1495 1494 1492 1491 1489 1486 1484 1481 1479 1475 1472 1469 1465
1497 1498 1497 1497 1500 1503 1506 1497 1493 1495 1494 1491 1491 1490 1489 1488 1487 1486 1487 1487 1488 1488 1489 1489 1488 1488 1488 1490 1492 1492 1494 1495 1495 1495 1495 1494 1493 1492 1490 1489 1487 1484 1482 1480 1476 1473 1470 1465 1461
1486 1490 1488 1494 1496 1499 1498 1494 1491 1490 1490 1489 1488 1488 1487 1486 1486 1487 1487 1488 1488 1489 1489 1488 1488 1488 1488 1489 1491 1492 1493 1494 1494 1493 1493 1493 1492 1491 1489 1488 1486 1484 1481 1478 1475 1472 1468 1465 1460
1479 1481 1486 1489 1493 1496 1492 1488 1486 1484 1485 1486 1486 1486 1486 1486 1487 1488 1488 1489 1489 1489 1489 1489 1489 1489 1489 1490 1491 1492 1493 1493 1493 1493 1493 1493 1492 1491 1490 1488 1486 1483 1480 1476 1473 1469 1464 1461 1456
1475 1481 1484 1485 1491 1494 1488 1484 1480 1478 1480 1480 1482 1483 1484 1486 1488 1488 1489 1490 1491 1491 1491 1491 1491 1491 1491 1492 1492 1494 1493 1493 1494 1494 1494 1494 1492 1491 1489 1487 1485 1481 1477 1473 1469 1465 1461 1458 1454
1475 1479 1481 1486 1491 1491 1490 1477 1471 1476 1479 1479 1480 1482 1483 1485 1488 1489 1491 1491 1492 1493 1493 1492 1492 1493 1494 1494 1495 1497 1496 1496 1496 1496 1495 1494 1492 1490 1488 1485 1481 1477 1474 1471 1467 1462 1458 1455 1452
1473 1473 1478 1487 1494 1487 1488 1482 1468 1466 1474 1477 1478 1481 1483 1485 1487 1490 1491 1492 1493 1494 1495 1494 1494 1495 1496 1497 1497 1498 1498 1497 1497 1496 1495 1494 1491 1489 1485 1482 1478 1475 1472 1468 1465 1461 1457 1454 1450
1467 1475 1479 1486 1492 1491 1483 1482 1462 1468 1468 1472 1475 1479 1482 1485 1487 1490 1491 1492 1494 1495 1496 1495 1496 1496 1497 1498 1499 1498 1498 1498 1498 1497 1495 1492 1489 1486 1483 1479 1475 1473 1470 1467 1464 1460 1456 1452 1449
1469 1476 1484 1488 1491 1489 1475 1477 1459 1452 1457 1463 1472 1477 1482 1485 1487 1489 1490 1493 1494 1495 1496 1496 1496 1497 1498 1499 1499 1498 1499 1498 1498 1497 1494 1491 1488 1485 1481 1478 1475 1471 1468 1465 1461 1458 1454 1451 1447
1465 1476 1496 1496 1494 1478 1477 1475 1457 1451 1457 1460 1466 1473 1478 1483 1486 1487 1489 1491 1494 1495 1496 1496 1497 1497 1498 1499 1499 1498 1498 1498 1497 1495 1493 1491 1488 1485 1481 1476 1472 1468 1465 1461 1458 1455 1451 1447 1443
1463 1464 1473 1475 1470 1468 1481 1469 1455 1452 1456 1459 1462 1469 1475 1480 1484 1486 1487 1490 1493 1495 1496 1496 1497 1496 1497 1498 1498 1498 1498 1497 1496 1494 1492 1489 1486 1482 1477 1472 1469 1465 1462 1459 1455 1451 1447 1443 1439
1471 1467 1463 1467 1474 1467 1460 1454 1448 1452 1454 1458 1461 1467 1472 1478 1482 1485 1486 1489 1492 1493 1495 1496 1496 1495 1496 1496 1496 1496 1496 1495 1493 1491 1489 1486 1482 1477 1473 1470 1466 1463 1459 1456 1452 1447 1443 1438 1434
1458 1462 1481 1476 1471 1468 1459 1452 1443 1443 1447 1454 1458 1463 1469 1476 1480 1483 1486 1488 1490 1492 1494 1495 1495 1495 1494 1494 1494 1494 1493 1492 1490 1488 1485 1482 1478 1474 1471 1467 1464 1459 1455 1451 1447 1442 1436 1432 1428
1454 1459 1460 1456 1463 1460 1455 1446 1442 1443 1446 1449 1454 1460 1466 1472 1478 1481 1485 1487 1489 1491 1492 1493 1493 1493 1493 1492 1492 1492 1491 1490 1487 1485 1481 1478 1474 1471 1467 1464 1460 1455 1451 1446 1441 1435 1431 1426 1422
1449 1448 1453 1460 1465 1463 1455 1451 1444 1446 1448 1450 1453 1458 1465 1471 1476 1480 1482 1484 1486 1488 1490 1491 1491 1491 1491 1491 1491 1490 1489 1486 1483 1481 1477 1474 1471 1468 1464 1459 1455 1451 1446 1441 1435 1430 1425 1420 1415